Temperature
24 24 23 23 24 24 24 23 23 24 25 24 23 23 22 22 22 22 22 21 21 20 20 19 19 19 19 18 18 18 17 17 17 17 16 16 16 16 16 16 16 16 16 16
24 23 25 25 25 24 24 23 23 24 25 24 23 23 23 23 22 22 22 22 21 21 20 19 19 19 19 18 18 18 18 17 17 16 16 16 16 16 16 16 16 16 16 16
24 25 26 25 25 24 24 23 24 24 24 24 23 22 23 23 23 23 23 22 22 21 20 20 19 19 19 18 18 18 17 17 17 16 16 16 16 16 16 16 16 16 15 15
25 26 25 25 25 24 23 24 24 24 23 23 23 21 22 23 22 23 23 22 22 21 21 20 19 19 19 18 18 18 17 17 17 17 16 16 16 16 16 16 15 16 15 15
24 25 25 24 25 25 24 25 25 24 23 23 24 22 22 23 22 22 23 23 22 21 21 20 20 19 19 18 18 18 17 17 17 17 17 16 16 16 16 16 16 16 15 15
25 26 25 25 25 25 25 25 25 24 24 22 24 23 22 23 23 23 23 23 22 22 21 21 20 19 19 18 18 18 18 17 17 17 17 17 16 16 16 16 16 16 15 15
24 25 25 25 25 25 25 23 22 22 21 22 25 24 24 25 25 24 23 23 22 22 21 21 20 19 19 18 18 18 18 17 17 17 17 17 16 16 16 16 16 16 16 16
23 23 24 25 25 24 24 23 21 21 22 23 25 24 25 26 26 25 24 23 23 22 22 21 20 20 19 18 18 18 18 17 17 17 17 17 17 16 16 16 16 16 16 16
24 23 25 26 26 25 24 24 24 23 23 23 24 25 25 25 25 25 24 23 23 22 22 21 20 20 19 18 18 18 18 17 17 17 17 17 17 17 16 16 16 16 16 16
25 23 24 25 25 25 25 25 24 23 22 22 23 24 23 24 24 25 24 24 23 22 22 21 20 20 19 19 18 18 18 18 18 17 17 17 17 17 17 16 16 16 16 16
25 23 24 24 24 24 25 24 24 24 23 22 21 22 25 24 24 24 24 24 23 22 22 21 21 20 19 19 18 18 18 18 18 17 17 17 17 17 17 16 16 16 16 15
24 24 23 24 25 26 25 25 24 23 23 23 22 22 25 25 25 24 24 23 23 23 22 21 21 20 20 19 19 18 18 18 18 18 17 17 17 17 16 16 16 16 16 16
24 23 22 22 23 24 25 25 25 24 23 23 22 22 25 25 25 24 24 23 23 22 22 21 21 20 20 19 19 18 18 18 18 18 17 17 17 17 16 16 16 16 16 15
23 23 23 22 23 24 24 24 25 24 23 22 22 23 24 24 24 24 24 23 23 22 22 21 21 20 20 19 19 19 19 18 18 18 17 17 17 17 17 16 16 16 16 16
24 23 24 24 25 25 24 24 24 24 24 23 23 23 24 24 24 24 23 23 23 22 22 21 21 20 20 19 19 19 19 18 18 18 18 17 17 17 16 16 16 16 16 15
24 23 24 24 24 25 24 25 24 24 24 24 24 24 25 25 24 24 23 23 22 22 21 21 21 20 20 19 19 19 19 18 18 18 18 17 17 17 16 16 16 16 16 15
24 23 23 23 24 24 23 24 24 24 25 24 23 24 25 24 24 24 23 23 22 21 21 21 20 20 20 19 19 19 19 19 18 18 18 17 17 17 16 16 16 16 16 15
23 23 23 23 23 21 23 26 25 25 25 25 25 25 25 24 24 23 23 22 22 21 21 21 20 20 20 20 19 19 19 18 18 18 18 17 17 17 16 16 16 16 16 15
24 23 22 22 21 22 24 25 25 24 24 25 25 25 25 24 24 23 23 22 22 21 21 21 20 20 20 20 20 19 19 18 18 18 18 17 17 17 16 16 16 16 15 15
23 23 22 21 21 21 23 25 25 25 23 25 25 24 24 24 22 22 22 22 21 21 21 20 20 20 20 20 20 19 19 18 18 18 17 17 17 17 16 16 16 15 15 15
22 22 21 21 21 22 24 25 25 23 23 24 24 24 24 23 22 22 21 21 21 21 20 20 20 20 19 20 19 19 19 18 18 18 17 17 17 16 16 16 15 15 15 14
22 21 21 21 20 21 23 24 23 23 24 23 23 23 23 22 22 21 21 20 20 20 20 19 19 19 19 19 19 19 18 18 18 17 17 17 16 16 15 15 15 15 14 14
22 22 22 22 21 22 23 23 23 23 23 23 22 22 22 21 21 21 20 20 19 19 19 19 19 19 19 19 19 18 18 18 17 17 17 16 16 15 15 15 15 14 14 14
23 23 22 22 22 22 22 22 22 22 22 22 22 21 21 21 20 20 20 19 19 18 18 18 18 18 18 18 18 18 18 17 17 17 16 16 15 15 15 15 15 14 14 14
21 22 22 21 21 21 21 21 21 21 21 21 21 21 21 20 20 20 19 19 18 18 18 18 18 18 18 17 17 17 17 17 16 16 16 15 15 15 15 14 14 14 14 14
21 21 20 20 21 21 21 20 20 20 20 20 20 20 20 19 19 19 19 18 18 17 17 17 17 17 17 17 17 17 16 16 16 15 15 15 15 14 14 14 14 14 14 14
Wind_Speed
7 6 6 6 6 4 2 3 4 5 6 5 6 7 9 10 9 9 11 11 11 10 9 8 7 7 7 7 7 7 7 6 4 3 3 2 2 3 4 4 7 8 9 9
5 5 6 6 6 5 4 4 3 5 6 5 5 7 9 11 11 9 10 11 11 10 10 10 8 7 6 7 7 7 7 6 5 3 2 2 3 3 3 3 6 7 8 8
6 3 5 7 6 6 5 5 4 4 4 5 5 5 9 11 10 9 9 9 11 11 12 11 9 8 7 7 6 6 6 7 5 4 3 3 3 2 2 3 3 4 7 7
5 4 5 5 5 5 4 3 3 4 5 4 6 4 7 12 11 11 10 9 10 10 11 11 9 9 9 8 7 7 7 7 6 5 3 4 3 2 3 3 2 2 5 6
4 5 5 5 4 4 2 3 5 5 5 5 6 4 5 12 13 13 12 11 11 11 11 12 11 10 9 8 7 6 7 6 6 5 5 2 2 3 3 3 2 3 3 4
5 5 4 4 5 5 3 4 5 6 5 6 8 6 3 9 15 16 14 12 11 11 11 12 11 10 9 8 7 6 6 6 5 5 6 4 3 3 3 3 3 2 2 2
7 7 5 5 5 6 6 4 2 4 5 5 6 4 3 5 9 13 15 14 13 12 11 11 12 11 10 10 8 7 7 6 5 5 5 5 5 4 3 3 2 2 3 2
7 7 7 7 6 5 7 6 3 2 2 2 4 3 3 7 5 8 11 12 12 12 11 11 11 12 11 11 10 8 8 7 6 4 4 5 5 3 2 2 3 3 3 3
5 5 8 8 6 5 6 7 6 5 5 3 2 4 6 6 7 7 9 11 11 11 11 11 11 12 12 11 10 9 9 7 6 5 4 3 4 3 3 2 3 3 3 3
5 4 7 7 5 7 7 5 4 3 3 3 2 3 4 6 6 7 9 10 10 11 11 11 11 12 11 11 10 9 9 8 7 7 5 4 3 3 3 3 4 4 4 3
6 5 7 8 8 9 8 8 6 4 3 2 1 1 4 6 5 5 6 8 9 10 11 11 10 11 11 11 10 9 9 9 8 7 6 6 4 4 4 3 3 4 4 3
6 5 6 9 9 8 8 8 7 4 3 3 1 1 3 5 5 5 6 7 8 9 10 11 10 10 10 10 10 10 9 9 8 7 7 7 6 5 4 4 4 4 4 3
4 4 5 5 6 7 7 8 7 6 4 3 2 2 4 5 4 4 5 6 7 8 8 10 10 10 10 10 10 10 10 9 8 7 7 7 6 6 5 4 4 4 4 4
4 7 6 6 5 6 9 9 8 7 6 4 4 3 3 4 4 4 4 5 6 7 8 8 9 9 9 9 9 9 9 9 9 8 7 7 7 6 6 5 4 3 3 4
6 9 9 8 6 7 8 9 9 9 8 6 5 5 3 4 4 5 5 4 5 6 7 8 8 8 9 9 9 9 8 9 10 9 8 7 7 6 5 5 5 3 2 3
9 8 9 9 7 8 8 9 9 10 9 8 7 5 1 3 3 4 5 5 5 5 6 6 7 8 9 9 8 8 8 9 9 10 8 7 7 7 6 5 5 4 3 2
9 10 9 8 7 8 10 10 11 10 8 7 7 4 2 3 3 3 4 5 5 5 5 5 6 7 8 9 8 8 8 8 9 9 9 8 8 7 7 6 6 6 5 3
7 8 6 7 8 9 5 5 7 8 8 7 6 3 3 3 3 3 3 4 5 5 5 5 5 5 6 8 9 9 8 8 9 9 9 9 8 8 7 6 6 6 5 5
9 7 6 6 7 7 7 7 8 8 7 6 5 4 4 4 3 3 4 3 3 4 5 4 5 5 5 6 8 9 9 9 8 8 9 9 9 9 8 7 7 5 5 5
10 9 7 6 7 6 4 4 4 5 6 5 5 4 4 5 3 2 3 3 3 3 3 3 4 4 4 5 6 8 8 9 9 9 9 9 9 9 8 8 6 5 5 5
12 11 10 9 8 6 2 2 4 4 2 3 3 4 4 3 2 4 4 4 3 4 3 3 3 3 4 5 6 7 7 7 7 7 8 8 9 8 8 7 6 5 5 5
9 8 10 8 8 6 2 3 3 1 2 3 3 3 3 5 5 5 5 4 3 4 3 2 2 3 3 4 6 6 6 6 6 7 8 8 8 8 7 7 6 5 6 5
7 6 4 4 3 3 2 2 2 1 2 2 3 4 5 4 4 4 3 3 3 2 3 3 3 3 3 4 5 5 5 6 7 7 8 8 8 7 7 7 6 5 5 5
5 5 6 4 3 3 2 2 2 2 2 3 3 3 3 2 3 3 3 3 3 2 2 2 4 4 3 4 4 4 5 6 7 7 7 7 7 7 6 6 6 6 5 5
4 4 5 4 2 2 2 2 2 2 2 2 2 2 2 2 3 3 3 3 3 3 2 2 3 4 4 4 4 5 5 6 6 6 6 6 6 6 6 5 4 5 5 6
6 5 5 3 2 2 2 2 2 1 1 0 0 1 2 2 2 3 3 3 3 3 3 2 3 3 4 4 4 4 5 6 6 5 5 5 5 5 5 5 3 2 3 5
Wind_Direction
190 190 192 198 210 195 182 194 176 161 158 175 182 170 166 171 181 177 169 166 166 162 156 143 147 144 143 132 127 124 119 112 101 79 83 83 69 65 52 47 47 45 41 35
198 204 197 196 195 189 190 204 189 155 163 189 191 182 174 177 185 189 180 173 168 163 156 153 158 147 142 135 134 130 126 119 107 98 95 92 78 78 80 54 41 41 51 33
206 176 174 190 192 194 198 214 196 166 184 218 202 198 184 182 185 187 189 178 168 169 164 160 160 151 147 140 140 140 135 126 125 117 94 84 66 54 83 83 54 37 55 51
209 183 178 190 206 213 214 217 211 193 205 225 214 215 196 180 185 189 191 182 172 172 167 159 160 156 150 145 145 146 140 135 132 124 125 136 137 112 95 105 119 92 67 62
199 185 197 203 214 223 223 211 222 224 235 251 230 236 203 177 186 193 193 188 179 175 169 162 163 160 155 150 149 151 141 136 138 143 137 137 116 116 116 116 109 95 80 70
216 200 210 215 214 212 209 222 231 239 244 253 237 224 199 188 191 188 187 187 181 176 171 165 162 156 153 149 149 151 143 143 150 152 147 149 124 114 114 113 119 120 109 75
208 202 202 206 203 198 208 219 239 226 220 233 211 205 181 174 178 180 182 183 181 175 171 166 162 158 157 154 157 158 152 156 159 165 160 155 149 150 146 142 136 124 108 89
209 196 194 206 216 213 212 216 234 256 254 256 195 185 126 134 140 159 168 170 174 172 169 166 163 160 161 162 165 168 165 163 163 172 171 160 151 150 147 148 129 111 109 107
223 195 184 203 212 229 226 229 256 284 295 274 215 150 128 119 133 150 159 162 170 170 168 166 162 161 163 167 171 178 169 164 170 177 178 161 145 150 158 153 115 108 109 114
256 214 183 190 211 231 248 259 263 266 288 271 231 190 148 134 146 160 161 163 170 170 169 166 165 165 166 168 173 177 169 172 177 176 175 154 144 150 137 118 121 118 109 101
256 244 193 190 209 219 216 228 242 259 271 289 288 49 98 130 140 153 155 157 168 172 170 166 165 166 166 166 170 174 172 174 177 173 165 153 161 152 137 132 127 123 123 130
234 255 221 205 213 234 238 237 237 244 264 272 276 121 95 108 129 143 149 151 161 165 166 163 164 163 163 167 172 175 175 174 173 170 165 161 159 152 155 153 151 152 152 153
234 241 229 212 209 219 231 239 243 248 262 271 264 158 136 119 111 117 131 144 156 159 160 163 165 166 168 171 173 177 179 174 168 166 164 157 158 162 161 157 158 166 156 145
254 253 242 226 224 215 218 230 234 237 244 246 248 220 168 136 128 121 128 144 152 158 164 165 166 166 169 174 175 178 180 171 165 164 164 163 168 161 159 161 157 162 154 143
235 252 257 253 253 239 227 222 224 232 240 244 247 247 218 150 141 136 137 143 153 160 166 167 163 168 170 176 177 177 177 171 166 165 168 170 165 155 159 157 151 145 138 141
226 248 254 253 249 253 243 227 224 229 237 239 254 260 213 149 139 144 152 153 157 167 171 173 171 170 173 177 176 171 171 173 169 168 169 167 163 157 160 156 151 142 137 124
220 237 249 250 239 251 246 229 227 230 235 231 242 243 194 166 168 169 164 161 163 173 175 177 183 181 181 180 175 173 177 172 170 168 163 163 162 159 163 163 154 152 149 148
235 245 249 252 244 246 242 221 219 228 234 230 232 214 207 182 169 157 160 170 178 177 176 181 190 188 187 179 174 176 175 170 174 169 165 164 164 160 159 161 162 162 157 161
235 235 245 253 249 250 242 216 208 220 228 224 219 207 197 170 173 165 152 153 160 171 172 173 182 188 186 182 176 174 173 172 174 170 168 166 164 160 161 168 170 168 166 162
228 235 235 240 246 248 230 177 176 217 227 211 208 189 187 180 184 162 119 121 128 134 147 154 166 180 184 184 175 175 175 172 176 172 169 164 161 161 166 172 169 166 165 165
209 220 228 241 247 253 242 151 163 217 207 138 157 164 180 180 129 110 99 89 100 109 116 134 163 181 188 180 171 172 170 172 169 161 159 157 157 161 164 166 166 165 166 165
216 217 222 227 238 235 183 180 189 118 72 93 112 113 104 95 98 103 104 103 106 114 118 132 161 171 174 167 167 170 170 163 154 152 152 153 156 163 164 160 167 169 165 170
220 226 222 217 210 145 145 113 76 57 47 53 79 85 93 95 104 113 119 120 115 116 136 145 155 154 153 155 159 164 158 149 147 147 152 155 157 160 158 160 167 171 175 182
233 229 224 219 198 169 155 94 49 45 35 31 60 82 93 118 124 125 129 126 124 121 133 147 152 152 151 150 149 151 143 145 146 150 153 155 157 159 162 167 173 177 182 187
281 272 253 240 194 162 123 91 58 51 37 27 48 80 108 124 136 130 133 131 130 127 123 143 154 149 142 140 143 140 142 147 155 158 157 160 162 160 162 162 170 177 182 180
265 261 248 250 249 236 175 145 119 95 62 35 79 108 107 116 129 125 129 128 129 134 134 138 146 146 150 148 147 146 148 156 164 166 166 163 157 156 160 158 146 121 159 167
Height
1506 1509 1512 1511 1509 1510 1512 1516 1518 1516 1514 1518 1522 1524 1526 1528 1531 1533 1535 1538 1541 1544 1547 1549 1551 1552 1554 1556 1557 1558 1560 1561 1561 1562 1563 1563 1564 1564 1564 1564 1564 1564 1563 1563
1507 1509 1506 1505 1506 1509 1513 1518 1518 1515 1513 1516 1520 1522 1522 1525 1528 1530 1533 1536 1539 1542 1545 1548 1550 1552 1553 1555 1557 1558 1560 1561 1562 1563 1563 1564 1565 1565 1565 1565 1565 1565 1564 1564
1507 1505 1502 1504 1507 1510 1513 1516 1516 1517 1515 1514 1519 1525 1522 1523 1525 1528 1530 1533 1536 1540 1543 1546 1549 1551 1553 1555 1557 1558 1560 1561 1562 1563 1564 1565 1565 1566 1566 1566 1566 1565 1565 1565
1503 1501 1503 1505 1507 1508 1515 1510 1511 1514 1520 1523 1520 1534 1523 1520 1523 1525 1528 1531 1534 1538 1541 1544 1547 1550 1552 1554 1556 1558 1560 1561 1562 1563 1564 1565 1566 1567 1567 1567 1567 1567 1566 1566
1504 1502 1504 1507 1507 1506 1509 1507 1509 1512 1517 1521 1517 1526 1522 1516 1522 1523 1524 1528 1531 1535 1539 1542 1546 1549 1551 1553 1555 1558 1559 1561 1562 1563 1564 1565 1566 1567 1568 1568 1568 1568 1568 1567
1501 1500 1502 1504 1504 1505 1507 1508 1510 1510 1516 1530 1516 1521 1522 1514 1513 1516 1520 1524 1528 1532 1536 1540 1544 1547 1550 1553 1555 1557 1559 1560 1562 1563 1564 1565 1566 1567 1568 1569 1569 1569 1569 1568
1504 1501 1501 1502 1505 1506 1508 1517 1530 1532 1533 1527 1506 1513 1514 1503 1503 1508 1514 1519 1524 1529 1533 1538 1541 1545 1548 1551 1553 1556 1558 1560 1561 1563 1564 1565 1566 1568 1568 1569 1569 1570 1569 1569
1509 1510 1502 1501 1504 1507 1508 1514 1531 1538 1533 1520 1506 1512 1505 1498 1501 1505 1510 1516 1521 1526 1531 1535 1539 1542 1546 1549 1551 1554 1556 1558 1560 1562 1564 1565 1566 1567 1568 1569 1569 1570 1570 1570
1504 1506 1498 1498 1499 1502 1507 1509 1506 1516 1516 1523 1514 1505 1501 1498 1502 1505 1509 1514 1519 1524 1528 1532 1536 1540 1544 1547 1550 1552 1555 1557 1559 1561 1563 1565 1566 1567 1568 1569 1569 1570 1570 1570
1495 1504 1498 1498 1500 1501 1501 1503 1509 1517 1529 1532 1519 1511 1511 1505 1504 1505 1508 1513 1517 1521 1526 1530 1534 1538 1541 1545 1548 1551 1553 1556 1558 1560 1562 1564 1565 1566 1567 1568 1569 1570 1570 1570
1494 1502 1501 1499 1503 1503 1503 1505 1506 1509 1513 1527 1532 1523 1499 1502 1503 1505 1508 1511 1516 1519 1524 1528 1532 1536 1539 1543 1546 1549 1551 1554 1556 1558 1561 1562 1564 1565 1567 1567 1568 1569 1570 1570
1493 1498 1502 1499 1494 1494 1496 1499 1503 1516 1517 1513 1522 1523 1498 1499 1501 1504 1506 1510 1514 1518 1522 1526 1530 1533 1537 1540 1543 1546 1549 1552 1554 1557 1559 1560 1562 1564 1565 1567 1568 1568 1569 1570
1492 1498 1509 1509 1505 1498 1497 1497 1497 1501 1508 1514 1523 1520 1499 1500 1502 1504 1506 1509 1513 1516 1520 1524 1527 1531 1534 1538 1541 1544 1547 1550 1552 1555 1557 1559 1561 1562 1564 1565 1566 1567 1568 1569
1493 1495 1502 1511 1504 1497 1499 1497 1496 1502 1511 1514 1514 1510 1501 1500 1502 1504 1506 1509 1512 1515 1518 1522 1525 1528 1532 1535 1538 1541 1545 1547 1550 1552 1555 1557 1559 1561 1562 1564 1565 1566 1567 1568
1491 1495 1493 1491 1488 1490 1492 1494 1496 1499 1501 1508 1507 1504 1500 1499 1500 1503 1506 1508 1511 1514 1517 1520 1523 1526 1529 1532 1535 1539 1542 1545 1547 1550 1552 1555 1557 1559 1561 1562 1563 1565 1566 1567
1489 1492 1491 1491 1488 1488 1490 1490 1492 1494 1495 1498 1500 1500 1494 1496 1499 1502 1505 1507 1510 1513 1515 1518 1521 1524 1527 1529 1532 1535 1539 1542 1544 1547 1549 1552 1554 1556 1558 1560 1561 1562 1563 1565
1486 1490 1494 1496 1489 1490 1496 1488 1489 1490 1490 1493 1499 1497 1494 1496 1498 1501 1503 1506 1509 1511 1513 1516 1519 1521 1524 1527 1529 1532 1535 1539 1541 1544 1546 1549 1552 1553 1555 1557 1559 1560 1561 1562
1485 1488 1491 1494 1495 1507 1490 1478 1481 1485 1486 1487 1489 1490 1492 1495 1498 1500 1502 1505 1507 1509 1511 1514 1516 1518 1521 1524 1526 1529 1533 1535 1538 1541 1543 1546 1548 1550 1552 1554 1556 1557 1559 1560
1481 1486 1492 1495 1499 1495 1484 1477 1478 1483 1486 1484 1486 1488 1491 1493 1496 1498 1501 1503 1505 1507 1509 1511 1514 1516 1518 1521 1524 1527 1529 1532 1535 1538 1540 1542 1545 1547 1549 1551 1553 1555 1556 1557
1479 1481 1489 1494 1501 1502 1484 1474 1475 1481 1488 1483 1484 1486 1489 1492 1497 1499 1500 1501 1503 1505 1507 1509 1511 1513 1516 1518 1521 1524 1526 1529 1531 1534 1536 1539 1541 1544 1546 1548 1550 1552 1554 1555
1481 1483 1488 1492 1495 1489 1477 1475 1477 1491 1488 1481 1482 1485 1488 1490 1494 1497 1499 1500 1501 1503 1505 1506 1508 1510 1513 1515 1518 1520 1523 1525 1528 1531 1533 1536 1538 1541 1543 1545 1548 1549 1551 1553
1476 1481 1484 1487 1494 1491 1476 1476 1480 1483 1480 1481 1483 1485 1488 1490 1493 1496 1498 1499 1501 1502 1503 1504 1506 1508 1510 1512 1515 1517 1520 1522 1525 1528 1530 1533 1535 1538 1540 1542 1545 1547 1549 1550
1471 1473 1475 1479 1483 1478 1476 1477 1479 1480 1481 1482 1484 1486 1488 1490 1493 1495 1497 1499 1500 1501 1502 1503 1504 1506 1508 1509 1512 1514 1517 1520 1522 1525 1527 1530 1533 1535 1537 1539 1541 1543 1545 1547
1466 1467 1470 1473 1474 1475 1476 1477 1479 1480 1481 1483 1484 1486 1488 1490 1492 1494 1496 1498 1499 1500 1501 1502 1503 1505 1506 1508 1510 1512 1515 1517 1520 1522 1525 1527 1530 1532 1534 1537 1538 1540 1542 1543
1469 1468 1468 1470 1472 1474 1475 1477 1479 1480 1481 1482 1484 1486 1488 1490 1491 1493 1495 1496 1497 1498 1499 1501 1502 1504 1505 1507 1509 1511 1513 1515 1517 1520 1522 1525 1527 1529 1531 1533 1535 1537 1538 1540
1469 1470 1471 1474 1473 1474 1475 1476 1478 1479 1481 1482 1484 1485 1487 1488 1490 1492 1493 1495 1496 1497 1498 1500 1501 1503 1504 1506 1507 1509 1511 1513 1515 1517 1520 1522 1524 1526 1528 1530 1532 1534 1536 1537